Home > Weather > Germantown > Past weeks

Flag for USA Weather for the Past 2 Weeks in Germantown, Maryland, USA

Now
54 °F

Mostly cloudy.


Feels Like: 52 °F
Forecast: 50 / 56 °F
Wind: 7 mph from East

Location: Frederick Municipal Airport

Current Time: May 4, 2016 at 10:02:53 PM

Latest Report: May 4, 2016 at 9:30 PM


Visibility: 10 mi

Pressure: 29.72 "Hg

Humidity: 100%

Dew Point: 54 °F

Location of GermantownLocation

Historic Weather in Germantown — Graph

°F

Germantown Temperature Yesterday

Maximum temperature yesterday: 68 °F (at 4:50 PM)
Minimum temperature yesterday: 55 °F (at 11:45 PM)
Average temperature yesterday: 61 °F

High & Low Weather Summary for the Past Weeks

 TemperatureHumidityPressure
High81 °F (Apr 26, 1:50 PM)100% (Apr 20, 5:25 AM)30.36 "Hg (Apr 20, 5:25 AM)
Low34 °F (Apr 20, 6:05 AM)21% (Apr 20, 2:47 PM)29.68 "Hg (May 4, 3:47 PM)
Average55 °F85%30.00 "Hg
* Reported Apr 19 8:25 PM — May 4 8:50 PM, Germantown, Weather by CustomWeather, © 2016

Note: Actual official high and low records may vary slightly from our data, if they occured in-between our weather recording intervals... More about our weather records

Advertising

Germantown Weather History for the Previous 24 Hours

Scroll right to see more
 ConditionsComfort  
Time TempWeatherWind HumidityBarometerVisibility
8:50 PM
Wed, May 4
54 °FMostly cloudy.7 mph100%29.72 "Hg10 mi
8:30 PM55 °FOvercast.5 mph94%29.71 "Hg10 mi
7:47 PM55 °FOvercast.6 mph100%29.70 "Hg10 mi
6:48 PM57 °FOvercast.3 mph94%29.68 "Hg10 mi
5:45 PM57 °FOvercast.8 mph94%29.68 "Hg10 mi
4:55 PM57 °FOvercast.No wind94%29.68 "Hg10 mi
3:47 PM57 °FOvercast.5 mph94%29.68 "Hg10 mi
2:47 PM55 °FOvercast.5 mph100%29.70 "Hg10 mi
1:47 PM57 °FLow clouds.No wind88%29.72 "Hg10 mi
11:52 AM55 °FFog.3 mph100%29.74 "Hg10 mi
10:50 AM54 °FFog.No wind100%29.76 "Hg2 mi
9:55 AM54 °FFog.3 mph100%29.76 "Hg4 mi
7:50 AM54 °FFog.5 mph100%29.77 "Hg4 mi
6:15 AM54 °FFog.3 mph100%29.76 "Hg3 mi
6:05 AM54 °FDrizzle. Low clouds.5 mph100%29.76 "Hg2 mi
5:45 AM54 °FDrizzle. Low clouds.5 mph100%29.76 "Hg2 mi
5:25 AM54 °FRain. Low clouds.5 mph100%29.77 "Hg3 mi
5:05 AM54 °FOvercast.No wind100%29.77 "Hg7 mi
4:45 AM54 °FFog.No wind100%29.76 "Hg5 mi
4:25 AM54 °FFog.3 mph100%29.77 "Hg4 mi
4:05 AM54 °FFog.No wind100%29.75 "Hg5 mi
3:45 AM54 °FFog.No wind100%29.77 "Hg5 mi
3:25 AM54 °FFog.No wind100%29.76 "Hg4 mi
3:05 AM54 °FFog.No wind100%29.77 "Hg5 mi
2:45 AM55 °FFog.No wind100%29.78 "Hg5 mi
2:25 AM55 °FLight rain. Low clouds.No wind100%29.78 "Hg4 mi
2:05 AM55 °FDrizzle. Mostly cloudy.No wind100%29.79 "Hg3 mi
1:45 AM55 °FDrizzle. Mostly cloudy.No wind100%29.80 "Hg4 mi
1:05 AM55 °FFog.No wind100%29.80 "Hg5 mi
12:45 AM55 °FDrizzle. Mostly cloudy.No wind100%29.80 "Hg5 mi
12:25 AM55 °FLight rain. Overcast.6 mph100%29.80 "Hg5 mi
12:05 AM55 °FRain. Mostly cloudy.No wind100%29.80 "Hg3 mi
11:45 PM
Tue, May 3
55 °FRain. Mostly cloudy.No wind100%29.81 "Hg3 mi
11:25 PM57 °FRain. Mostly cloudy.No wind100%29.81 "Hg5 mi
11:05 PM57 °FRain. Mostly cloudy.No wind100%29.81 "Hg5 mi
10:45 PM57 °FRain. Mostly cloudy.No wind100%29.81 "Hg3 mi
10:25 PM59 °FRain. Overcast.No wind100%29.82 "Hg2 mi
10:05 PM59 °FHeavy rain. Mostly cloudy.5 mph100%29.82 "Hg2 mi
Weather by CustomWeather, © 2016

See weather overviewHow to use our weather pages